Temperature
19 19 19 19 16 14 17 18 20 21 23 24 24 23 21 21 21 20 21 21 21 21 22 22 21 21 21 21 20 20 19 19 18 18 17 17 16 16 16 16 16 17 17 17 17 17 17 17 17
19 19 19 19 15 16 18 20 21 22 24 25 25 24 22 22 22 22 22 22 21 22 22 21 21 21 21 21 21 20 20 19 18 18 17 16 16 16 16 16 16 16 16 16 16 16 16 17 17
19 19 19 15 16 17 20 21 22 23 24 25 24 24 23 22 22 22 22 22 22 21 21 21 21 21 21 20 20 20 20 19 18 18 17 16 15 15 15 16 16 16 16 16 16 16 16 16 16
19 19 18 15 18 18 20 21 22 22 24 24 24 22 22 22 22 22 21 21 22 21 21 20 20 20 20 20 19 19 19 19 18 18 17 16 15 15 15 15 15 16 16 16 16 16 16 16 16
19 18 15 15 17 18 19 21 22 19 20 23 23 21 21 21 22 21 21 21 21 21 20 19 19 19 19 19 19 18 18 18 18 18 17 16 15 15 15 15 15 15 15 15 16 16 16 16 16
19 16 14 16 17 19 19 21 22 20 21 23 22 21 21 21 21 21 20 20 20 20 19 19 19 18 18 18 18 17 17 17 17 17 17 17 16 15 15 15 15 15 15 15 15 15 16 16 16
18 14 16 17 17 18 19 21 21 20 20 22 22 20 20 20 20 20 20 20 20 19 19 18 18 18 17 17 17 16 16 16 16 16 16 16 16 15 15 15 15 15 15 15 15 15 15 15 15
19 14 17 16 18 19 19 21 21 21 20 21 21 19 19 20 20 20 20 19 19 18 18 18 18 17 17 16 16 15 15 15 15 15 15 16 16 15 15 15 15 15 14 14 14 14 14 15 15
19 14 16 18 19 19 19 20 21 21 20 19 18 17 17 19 20 20 20 19 18 18 18 17 17 17 17 16 16 15 15 15 15 15 15 15 15 15 15 15 14 14 14 14 14 14 14 14 14
18 15 18 19 20 19 19 19 20 19 17 16 16 17 18 19 19 19 19 18 17 17 17 17 17 16 16 16 15 15 15 15 15 14 14 14 14 14 14 14 14 14 14 14 14 14 14 14 15
18 17 18 20 20 20 20 19 18 17 13 12 12 13 16 18 17 17 16 16 16 16 15 15 15 15 15 15 15 14 14 14 14 14 14 14 14 14 14 14 14 14 14 14 13 13 13 14 15
18 19 19 20 20 20 19 17 14 13 12 11 12 14 15 15 14 14 14 14 14 14 14 14 14 14 14 14 14 14 14 14 14 14 14 14 14 14 14 14 14 13 13 13 13 13 13 13 14
19 19 20 20 20 19 17 15 13 12 11 11 12 13 12 12 12 12 13 13 13 13 13 13 14 14 14 14 14 14 14 14 14 14 14 14 14 14 13 13 13 13 13 13 13 13 13 13 13
19 19 19 19 19 18 16 14 14 11 10 11 11 10 10 10 11 11 12 12 12 12 12 13 13 13 13 13 13 13 13 14 14 14 14 14 14 14 13 13 13 13 13 13 13 13 13 13 13
19 18 17 18 18 17 16 13 12 11 10 10 10 9 10 10 10 10 9 10 10 11 11 12 12 12 13 13 13 13 13 13 13 13 13 13 13 13 13 13 13 13 12 12 12 12 12 12 12
17 16 16 18 18 17 15 11 11 10 10 9 9 9 9 9 9 9 9 9 9 9 10 10 11 11 12 12 12 12 12 12 13 13 13 13 13 13 13 13 13 13 12 12 12 12 12 12 12
14 15 16 17 16 16 13 11 10 10 9 9 9 9 9 8 8 8 8 8 8 8 8 8 9 9 10 10 11 12 12 12 12 12 12 12 12 12 12 12 12 12 12 12 12 12 12 12 12
15 15 15 16 15 14 11 9 9 9 9 8 9 9 8 8 8 8 7 7 7 7 7 7 7 7 7 8 9 9 10 11 11 11 11 11 11 11 11 11 11 12 12 11 11 11 11 11 11
16 15 15 15 15 13 11 9 8 9 8 8 8 8 8 8 8 7 7 7 7 6 6 6 6 6 6 6 6 7 7 7 8 9 10 10 10 10 10 10 10 11 11 11 11 11 11 11 11
15 15 14 14 14 12 9 8 8 8 8 8 8 8 7 7 7 7 6 6 6 6 5 5 5 5 5 4 4 4 5 5 6 7 8 8 9 9 9 10 10 10 10 10 10 10 11 11 11
14 14 14 13 12 11 9 8 8 8 8 8 7 7 7 6 6 6 5 5 5 5 4 4 4 4 4 4 3 3 4 4 4 5 6 7 8 8 9 9 9 10 10 10 10 10 10 10 10
12 14 13 13 11 10 10 8 7 7 6 6 6 6 6 5 5 5 4 4 4 3 3 3 3 3 3 3 3 3 3 3 3 3 4 5 6 7 8 8 9 9 9 9 9 9 10 10 9
12 12 11 11 10 10 10 8 6 7 6 5 5 5 5 4 4 4 3 3 3 3 2 2 2 2 2 2 2 2 2 2 2 2 3 4 5 6 6 7 8 8 9 9 9 9 9 9 9
11 10 11 9 9 11 12 8 5 5 5 4 4 4 4 4 3 3 2 2 2 2 1 1 1 1 1 1 1 1 1 1 1 2 2 2 3 4 5 6 7 7 8 8 8 8 8 9 9
9 9 9 10 9 10 9 6 5 5 4 4 4 4 3 3 2 2 1 1 1 1 0 -0 -0 -0 -0 -0 -0 -0 -0 0 0 0 0 1 1 2 3 4 5 6 6 7 7 8 8 8 8
11 10 9 9 8 8 7 5 4 4 5 4 4 3 2 2 2 1 0 0 -0 -0 -1 -1 -1 -1 -1 -1 -1 -1 -1 -1 -0 -0 -1 -1 -1 0 1 2 3 4 5 6 6 6 7 7 7
11 10 10 8 7 7 6 5 4 4 3 3 3 2 2 1 1 -0 -1 -1 -1 -2 -2 -2 -2 -2 -2 -2 -2 -2 -1 -1 -1 -1 -1 -2 -2 -1 -1 0 1 2 3 4 5 5 6 6 6
11 10 7 8 8 7 7 5 3 2 2 2 2 2 1 0 -1 -1 -2 -2 -3 -3 -3 -3 -3 -3 -3 -3 -3 -3 -3 -2 -3 -3 -3 -3 -3 -2 -2 -1 -0 1 2 2 3 3 4 5 5
10 9 7 6 6 6 5 4 4 3 2 1 2 1 0 -1 -2 -2 -2 -3 -3 -4 -4 -5 -4 -5 -5 -5 -5 -4 -4 -4 -4 -4 -4 -4 -4 -3 -2 -2 -1 -0 0 1 2 2 3 3 3
10 8 7 6 5 4 3 3 3 3 3 2 1 0 -1 -2 -2 -3 -3 -4 -4 -5 -5 -6 -6 -6 -6 -6 -6 -6 -6 -5 -5 -5 -5 -5 -4 -4 -3 -2 -2 -1 -0 -0 0 1 1 2 2
Wind_Speed
11 9 3 4 6 5 4 6 4 1 2 2 3 10 9 7 5 4 3 4 9 9 13 16 17 15 14 12 11 10 9 8 7 6 5 4 5 5 4 6 7 7 7 6 5 4 3 4 4
6 5 5 5 5 5 5 5 2 4 2 2 7 9 7 4 3 7 4 7 10 11 14 16 18 16 14 12 11 10 9 8 7 6 5 4 4 4 4 3 6 8 8 7 6 5 4 4 4
6 4 4 5 4 2 2 3 2 4 3 4 6 7 6 3 2 5 6 10 9 9 13 16 18 16 14 12 11 10 9 8 7 6 5 5 4 3 3 2 2 5 7 6 5 5 5 5 5
5 5 5 5 3 4 4 3 3 6 10 8 5 6 5 3 2 4 3 7 10 8 11 14 16 14 13 11 10 9 9 8 8 6 6 6 5 4 2 1 1 2 4 6 5 5 6 6 6
4 5 6 5 5 6 5 5 8 10 8 9 5 5 4 7 2 3 4 6 9 7 8 11 13 13 12 11 10 9 9 8 8 7 6 6 7 6 5 3 2 3 4 5 6 6 6 6 7
5 5 5 5 8 7 6 6 7 9 8 8 6 4 2 6 3 3 6 5 7 8 6 8 10 11 11 11 11 10 9 9 8 8 8 7 6 6 7 5 5 5 5 5 5 6 6 7 8
4 4 2 4 5 7 10 8 9 7 9 9 4 4 3 6 5 3 7 8 7 6 5 2 3 5 7 8 9 9 9 9 9 9 9 8 6 5 6 7 7 7 7 6 6 5 5 6 8
5 5 5 4 3 5 9 7 7 8 7 8 7 5 3 6 6 3 6 8 8 7 5 2 0 2 4 6 8 9 10 10 10 10 9 8 8 8 7 7 9 10 10 9 8 7 7 7 7
4 5 3 3 3 3 5 8 10 6 8 10 11 9 9 12 11 10 8 7 8 9 6 5 5 2 2 4 7 10 11 11 12 11 11 10 9 9 9 11 12 13 13 12 12 11 11 10 9
5 3 2 2 1 2 3 6 7 9 13 10 10 17 17 19 19 18 15 11 9 9 8 7 6 6 7 5 0 4 7 9 11 11 11 11 11 11 10 12 15 16 16 15 15 14 14 12 10
5 5 4 3 2 3 3 6 8 7 11 9 8 12 18 24 24 22 19 14 12 10 12 11 9 9 8 6 4 4 5 7 9 10 11 11 10 9 9 7 8 11 14 11 11 11 10 9 9
4 4 3 3 3 2 3 5 10 13 8 7 11 14 21 24 21 20 19 18 16 17 16 14 12 11 11 10 7 6 5 5 5 7 7 6 3 3 4 4 6 6 7 6 7 6 8 9 10
1 2 3 3 3 6 11 11 13 10 9 10 17 24 23 21 18 16 17 19 19 20 19 16 17 17 14 10 9 8 7 6 8 8 7 3 2 3 4 3 4 5 6 5 4 4 6 7 6
4 5 6 3 5 7 13 9 9 8 7 16 22 21 19 19 18 19 21 20 19 17 18 17 18 17 16 13 12 9 11 11 10 9 10 8 3 2 3 4 4 4 5 6 5 6 6 6 5
5 5 7 5 6 6 11 11 8 7 10 19 17 16 17 16 17 17 14 14 14 13 15 17 16 17 16 15 13 13 14 15 11 12 14 12 8 4 3 4 5 5 6 6 5 5 4 5 5
5 6 6 7 5 5 10 7 8 5 14 16 12 11 13 13 13 11 11 11 12 12 14 15 17 17 16 13 12 14 16 15 13 16 16 16 13 9 3 4 5 5 5 4 4 5 4 5 5
8 5 4 7 9 6 8 8 6 6 14 13 10 10 10 11 12 11 10 10 10 11 11 13 14 14 14 12 12 13 14 13 15 17 16 18 18 14 6 5 5 5 4 4 5 4 4 4 5
4 3 4 4 7 7 9 9 7 7 12 10 9 9 10 11 10 9 10 9 9 9 9 10 10 11 10 8 9 9 11 12 14 14 16 21 19 17 9 6 7 5 4 4 4 5 4 4 4
1 2 3 2 4 5 10 10 7 5 9 9 9 9 10 9 9 9 10 10 10 11 11 11 11 11 9 8 8 9 10 12 12 11 19 21 20 19 11 9 8 6 5 6 6 4 4 4 2
5 3 4 5 5 5 10 8 5 5 6 7 8 9 9 10 12 12 12 12 13 13 14 14 13 13 11 8 6 5 6 6 9 8 15 19 20 19 13 12 9 7 6 6 6 5 4 3 3
4 2 2 5 6 4 9 5 4 5 6 8 9 9 10 12 12 13 13 13 13 14 15 16 15 14 12 10 6 7 5 6 8 11 13 17 21 20 15 15 11 9 7 6 7 6 6 5 3
5 5 5 5 3 3 4 4 4 3 7 9 10 11 11 11 11 11 12 13 13 13 13 13 13 13 12 10 7 8 8 7 7 9 10 16 19 18 17 15 12 9 7 7 7 7 5 6 4
7 9 7 4 5 2 1 4 1 3 6 8 9 10 11 11 12 12 12 12 12 12 12 12 13 12 11 10 9 8 8 7 8 10 13 14 15 16 16 15 11 8 6 7 7 6 6 5 5
6 7 5 5 4 1 2 4 2 4 5 7 9 10 11 11 11 11 11 11 11 12 12 13 13 11 11 10 9 9 10 11 13 14 14 14 13 14 17 17 12 7 4 4 5 6 7 6 5
10 8 7 8 5 4 4 7 5 6 7 8 8 9 10 10 10 10 11 12 13 14 14 14 14 13 12 11 10 9 10 11 12 13 14 15 14 14 16 17 13 8 5 3 2 3 4 5 6
5 5 4 2 5 6 5 6 6 5 6 6 7 7 9 10 9 10 11 13 14 16 17 17 16 14 14 13 12 10 11 11 11 14 14 14 13 14 17 17 15 11 6 4 3 1 0 2 3
3 2 3 4 4 5 2 5 6 4 6 7 9 10 10 10 9 10 11 12 13 15 16 16 17 16 16 15 14 12 13 14 15 15 15 14 14 15 17 17 15 13 8 5 3 2 2 2 2
2 2 5 2 4 6 5 2 1 7 9 10 11 11 11 10 9 9 10 11 13 14 15 16 17 18 18 17 15 15 15 15 16 15 17 17 17 17 17 16 15 12 10 6 3 2 2 3 3
6 4 4 1 2 3 5 2 4 5 7 9 10 11 11 10 10 11 11 12 14 15 16 18 19 19 19 18 17 16 16 16 16 15 16 16 16 17 17 16 14 12 10 8 5 3 1 1 2
2 4 4 1 5 2 3 2 6 4 6 7 10 10 9 9 9 11 12 14 15 17 18 19 19 19 19 18 18 17 17 16 16 16 16 16 16 17 17 16 15 13 11 8 5 4 2 2 2
Wind_Direction
337 353 63 56 51 42 338 291 260 243 49 345 67 91 107 109 129 160 222 162 151 152 172 173 173 174 175 176 174 172 173 174 177 181 186 190 196 206 214 219 218 214 210 211 217 219 208 192 175
347 5 48 57 74 44 345 299 20 72 150 62 65 89 90 87 136 143 154 166 155 158 171 173 175 175 177 179 180 181 184 186 189 196 203 213 220 223 219 238 230 224 218 215 221 226 223 210 192
356 40 65 61 73 133 297 276 338 334 347 62 61 75 89 105 142 174 199 164 150 158 172 176 175 176 178 181 185 190 193 197 201 207 218 226 228 234 237 254 260 227 213 209 210 215 219 214 202
42 32 50 58 351 267 259 280 56 27 359 8 65 61 57 8 203 206 203 156 151 165 174 176 175 176 178 183 190 196 202 207 212 219 234 240 238 229 218 251 278 221 206 202 204 213 219 219 214
60 64 47 20 316 296 305 332 57 55 17 357 38 66 30 338 36 125 116 144 147 153 166 174 177 179 181 187 194 201 207 216 222 230 244 251 255 234 210 206 220 216 209 203 207 218 223 225 224
48 60 60 359 333 328 344 352 55 46 18 17 50 79 7 332 25 56 68 102 135 137 149 171 186 187 188 193 199 204 210 218 226 234 241 249 263 241 216 213 220 218 216 211 211 218 226 227 227
83 74 60 338 332 5 349 350 40 42 22 346 1 88 11 346 337 29 74 88 100 105 112 141 200 207 209 210 211 214 218 225 232 238 241 241 248 256 240 222 220 218 217 215 215 224 235 239 236
109 86 32 8 30 1 326 360 10 25 13 354 29 72 9 325 331 42 80 72 76 72 74 56 304 223 237 237 229 224 225 229 235 241 244 241 240 242 241 234 228 223 218 213 216 226 235 243 246
79 66 18 347 20 340 339 16 355 26 46 35 35 33 8 6 14 18 25 35 56 61 58 56 57 52 282 245 231 233 235 238 242 244 242 240 240 243 246 246 242 235 224 218 221 229 236 240 244
82 103 250 296 171 141 26 30 2 39 35 21 21 21 25 33 35 32 26 30 41 40 34 36 48 42 37 34 18 252 259 260 255 251 248 242 238 239 245 252 250 239 229 224 227 234 241 244 244
148 185 233 284 193 138 61 29 21 69 44 28 45 32 37 41 38 36 32 28 25 19 19 14 19 24 28 29 26 344 307 291 278 263 252 249 246 245 245 248 257 241 230 228 240 250 246 241 239
204 253 280 309 335 24 63 68 52 60 91 81 72 60 53 48 42 36 32 29 25 24 17 14 14 13 14 18 12 8 357 337 322 304 276 249 239 241 235 225 232 228 226 229 240 244 246 243 241
190 295 307 291 21 61 80 88 93 77 93 81 68 59 54 52 45 40 37 34 29 24 16 13 19 16 11 12 4 5 358 353 346 343 340 318 244 248 243 228 223 225 227 226 228 232 240 242 241
307 303 314 328 70 74 86 81 87 82 83 70 63 59 55 52 46 43 36 31 26 22 16 13 21 15 13 13 5 358 354 351 351 348 339 335 311 263 261 254 235 227 226 230 228 232 233 237 238
321 341 357 23 114 130 92 54 64 94 81 69 61 59 57 51 47 45 38 33 25 19 17 16 18 15 14 11 5 360 355 352 348 340 333 328 320 294 259 251 250 245 241 241 244 250 243 246 245
25 31 20 352 39 87 89 88 62 61 81 72 60 56 56 50 46 42 37 33 27 23 19 16 16 14 13 10 3 0 355 352 348 341 334 327 320 305 275 255 251 250 249 239 240 244 252 255 259
28 21 3 350 10 42 85 105 67 51 81 75 59 53 52 46 39 32 29 24 20 17 14 12 11 11 8 4 1 358 356 353 347 341 336 329 321 309 285 262 254 251 245 242 240 229 220 240 254
344 342 329 332 5 46 87 100 80 56 78 73 58 49 45 40 25 17 17 12 7 4 4 4 1 0 358 359 359 358 356 352 346 341 336 333 325 315 300 274 260 249 240 241 231 225 216 218 231
287 330 327 309 29 56 103 104 87 70 71 67 55 46 40 29 9 7 7 3 360 358 356 354 355 351 353 355 358 357 353 347 342 337 334 331 327 319 307 290 269 247 231 228 221 208 204 210 193
45 62 2 322 9 73 100 91 76 64 71 74 64 48 37 24 11 6 4 2 359 356 353 352 350 345 344 341 337 334 331 328 329 326 329 329 326 319 311 295 275 249 230 222 212 199 184 201 184
7 144 260 285 344 70 114 90 83 50 53 47 37 34 28 27 13 5 3 359 358 357 353 351 343 339 336 332 330 332 331 331 342 341 335 330 326 317 308 296 280 252 223 214 209 196 179 189 206
304 252 268 271 304 243 176 175 168 99 54 39 28 26 21 13 7 2 359 358 360 356 350 345 340 337 335 334 338 344 350 341 329 328 323 324 324 320 314 301 285 256 227 211 209 200 187 169 187
277 289 289 256 196 251 319 131 156 93 60 35 23 20 15 8 2 357 358 357 357 352 348 342 338 338 337 339 340 344 344 334 328 331 327 327 325 324 322 312 298 271 242 220 206 196 189 176 171
317 344 23 58 82 4 351 133 62 21 66 44 23 15 7 359 352 352 355 356 352 348 346 343 341 339 340 342 341 343 344 339 339 339 335 332 328 328 329 327 317 301 279 248 223 202 189 182 168
22 33 17 5 5 276 46 90 90 67 69 57 29 10 357 348 346 353 357 355 351 348 348 346 345 344 345 344 343 343 347 342 340 339 335 332 329 330 331 332 325 322 322 309 279 213 191 179 168
7 81 97 294 277 295 17 103 122 97 71 49 25 3 349 346 351 1 359 355 352 350 349 348 347 346 347 350 346 348 354 350 344 339 335 330 329 327 327 329 327 325 330 349 357 331 190 160 167
26 50 163 172 287 281 284 127 152 65 34 19 7 357 349 346 352 358 354 353 350 349 348 348 349 350 352 353 349 352 355 351 345 340 337 334 330 326 327 325 325 322 324 336 9 13 21 80 97
54 97 57 49 306 293 293 136 348 2 0 359 355 346 338 340 349 353 351 351 352 350 349 351 355 355 354 355 354 353 351 348 343 341 340 337 332 329 325 325 324 321 317 315 315 323 4 33 50
2 44 62 70 205 251 292 334 69 32 3 346 336 333 335 342 347 352 352 355 354 353 355 356 357 356 355 353 351 351 349 346 342 341 339 337 334 331 329 327 323 320 316 312 305 287 300 28 27
58 76 89 28 292 258 252 232 69 21 342 332 328 329 334 344 346 351 354 356 356 357 356 355 354 354 352 350 349 350 348 344 342 341 339 339 339 337 336 335 333 329 323 318 308 294 273 197 173
Height
1523 1522 1520 1520 1522 1531 1531 1523 1515 1509 1505 1504 1503 1504 1508 1513 1518 1524 1520 1518 1520 1520 1520 1520 1520 1520 1520 1520 1520 1520 1520 1520 1520 1520 1521 1521 1522 1523 1523 1524 1524 1525 1525 1525 1526 1526 1526 1526 1526
1522 1521 1521 1521 1530 1540 1532 1519 1513 1507 1504 1504 1504 1506 1509 1512 1514 1516 1517 1518 1520 1520 1520 1521 1521 1521 1521 1521 1521 1520 1520 1520 1520 1520 1520 1521 1521 1522 1522 1523 1523 1524 1524 1524 1524 1525 1525 1526 1526
1522 1521 1522 1524 1531 1536 1527 1516 1511 1508 1506 1505 1506 1509 1512 1515 1516 1517 1518 1519 1519 1520 1521 1521 1522 1522 1522 1522 1521 1520 1520 1519 1519 1519 1520 1520 1520 1521 1521 1522 1522 1523 1523 1523 1523 1524 1524 1525 1525
1523 1523 1524 1530 1531 1528 1522 1515 1511 1509 1508 1508 1509 1512 1515 1518 1518 1519 1519 1519 1519 1520 1521 1522 1522 1522 1522 1522 1522 1521 1520 1519 1519 1519 1519 1519 1519 1520 1520 1520 1521 1521 1522 1522 1522 1522 1523 1523 1524
1523 1524 1530 1537 1533 1526 1520 1516 1512 1512 1512 1512 1512 1515 1517 1519 1520 1520 1520 1520 1520 1520 1521 1522 1522 1522 1522 1522 1522 1521 1520 1519 1519 1518 1518 1518 1518 1518 1518 1519 1519 1520 1520 1520 1521 1521 1521 1521 1522
1525 1526 1540 1542 1535 1526 1521 1518 1514 1515 1515 1515 1515 1517 1520 1521 1522 1522 1521 1521 1521 1521 1521 1522 1522 1522 1522 1521 1521 1520 1520 1519 1518 1518 1517 1517 1516 1517 1516 1516 1517 1517 1518 1518 1519 1519 1519 1520 1520
1527 1533 1539 1538 1537 1530 1525 1520 1518 1518 1518 1518 1519 1520 1522 1523 1524 1523 1523 1523 1522 1522 1522 1521 1521 1521 1520 1520 1520 1519 1519 1518 1517 1516 1516 1515 1515 1515 1515 1514 1514 1515 1515 1515 1516 1516 1517 1517 1517
1528 1533 1537 1539 1536 1533 1527 1523 1522 1521 1523 1522 1521 1523 1526 1527 1525 1524 1524 1524 1523 1523 1522 1521 1521 1520 1519 1519 1518 1518 1517 1517 1516 1515 1514 1514 1513 1513 1513 1512 1512 1512 1512 1512 1513 1513 1514 1514 1514
1530 1539 1543 1536 1534 1532 1527 1525 1525 1525 1526 1527 1527 1529 1530 1527 1525 1525 1525 1524 1524 1523 1523 1523 1521 1520 1518 1518 1517 1517 1516 1515 1514 1513 1513 1512 1511 1511 1510 1510 1510 1510 1510 1510 1510 1510 1510 1510 1511
1531 1542 1537 1531 1530 1529 1528 1527 1527 1528 1529 1531 1531 1531 1529 1526 1524 1524 1524 1525 1525 1525 1525 1524 1522 1520 1518 1517 1517 1516 1515 1514 1513 1512 1511 1510 1510 1509 1509 1508 1508 1508 1507 1507 1507 1507 1506 1506 1506
1530 1535 1531 1529 1528 1527 1527 1529 1529 1529 1539 1540 1538 1534 1530 1527 1525 1525 1525 1526 1527 1526 1526 1525 1523 1520 1518 1517 1516 1515 1514 1513 1512 1510 1509 1508 1507 1507 1506 1506 1505 1505 1505 1504 1504 1503 1502 1501 1501
1530 1529 1529 1529 1528 1527 1528 1531 1535 1536 1545 1544 1539 1534 1530 1529 1529 1529 1528 1528 1527 1526 1525 1523 1521 1519 1518 1517 1516 1515 1514 1512 1511 1509 1508 1506 1505 1504 1503 1503 1502 1502 1501 1501 1500 1500 1499 1498 1498
1529 1529 1528 1527 1527 1528 1529 1533 1539 1546 1548 1544 1538 1533 1533 1533 1534 1533 1532 1530 1528 1526 1524 1522 1520 1518 1517 1516 1514 1513 1512 1511 1510 1508 1507 1505 1503 1502 1501 1500 1499 1498 1498 1497 1497 1496 1495 1494 1494
1529 1527 1526 1525 1526 1529 1532 1538 1541 1552 1549 1542 1538 1537 1538 1537 1537 1535 1533 1532 1530 1528 1526 1523 1521 1518 1517 1515 1513 1512 1510 1509 1507 1506 1505 1503 1502 1500 1498 1497 1496 1495 1494 1493 1493 1492 1491 1490 1490
1529 1528 1527 1526 1527 1531 1532 1545 1550 1554 1548 1543 1543 1543 1542 1541 1540 1538 1538 1536 1534 1531 1528 1524 1521 1519 1516 1514 1512 1510 1508 1506 1504 1503 1502 1500 1499 1497 1495 1493 1492 1491 1490 1489 1488 1487 1486 1485 1485
1531 1535 1538 1531 1529 1531 1538 1556 1557 1556 1549 1548 1548 1547 1546 1545 1544 1542 1541 1538 1535 1532 1528 1525 1522 1518 1515 1513 1510 1508 1506 1504 1502 1500 1498 1496 1495 1493 1491 1489 1487 1486 1485 1484 1483 1482 1481 1480 1480
1544 1547 1543 1538 1533 1533 1541 1556 1560 1558 1552 1552 1552 1551 1550 1548 1546 1545 1543 1540 1536 1533 1529 1525 1521 1517 1514 1511 1508 1505 1503 1500 1498 1496 1494 1492 1490 1488 1486 1484 1483 1481 1480 1478 1477 1476 1476 1475 1474
1551 1549 1547 1544 1540 1540 1548 1559 1561 1561 1556 1556 1556 1555 1553 1551 1550 1548 1545 1541 1538 1534 1529 1525 1521 1517 1513 1509 1505 1501 1498 1495 1493 1490 1488 1486 1484 1482 1480 1478 1477 1476 1474 1472 1472 1471 1470 1469 1469
1545 1547 1548 1544 1542 1545 1554 1561 1563 1562 1559 1559 1558 1557 1556 1555 1553 1550 1546 1542 1538 1533 1529 1524 1520 1515 1511 1506 1501 1496 1493 1490 1487 1484 1481 1479 1477 1475 1473 1471 1470 1469 1468 1466 1466 1465 1464 1464 1463
1546 1548 1550 1547 1544 1549 1560 1564 1565 1564 1563 1562 1561 1560 1559 1557 1554 1550 1547 1542 1538 1534 1529 1524 1519 1515 1510 1505 1501 1497 1492 1488 1484 1479 1476 1472 1469 1467 1465 1463 1462 1461 1461 1460 1459 1459 1458 1458 1458
1549 1550 1549 1550 1548 1550 1559 1567 1567 1567 1566 1565 1564 1563 1562 1559 1556 1552 1548 1544 1539 1534 1529 1524 1519 1514 1509 1503 1498 1493 1487 1483 1478 1472 1468 1465 1462 1459 1457 1456 1454 1453 1453 1452 1452 1452 1452 1452 1453
1554 1546 1546 1547 1552 1557 1554 1567 1570 1569 1569 1568 1567 1566 1564 1561 1557 1553 1548 1544 1539 1534 1529 1523 1517 1512 1506 1501 1495 1489 1483 1478 1474 1469 1464 1460 1456 1452 1450 1448 1447 1446 1446 1446 1446 1445 1446 1446 1447
1550 1544 1545 1545 1550 1554 1552 1564 1574 1570 1572 1573 1571 1568 1565 1562 1558 1553 1548 1543 1538 1532 1526 1520 1514 1509 1503 1498 1492 1487 1482 1476 1471 1465 1460 1454 1450 1446 1443 1441 1439 1439 1439 1439 1439 1439 1440 1440 1441
1549 1547 1544 1549 1554 1556 1549 1561 1577 1575 1576 1576 1573 1570 1567 1563 1558 1553 1548 1543 1537 1530 1524 1517 1511 1505 1500 1495 1490 1485 1479 1473 1467 1461 1455 1449 1444 1440 1437 1434 1432 1432 1432 1432 1433 1433 1434 1434 1436
1555 1561 1564 1563 1565 1559 1557 1569 1582 1580 1578 1577 1575 1572 1568 1563 1557 1552 1546 1540 1534 1527 1520 1514 1507 1501 1496 1491 1486 1481 1476 1470 1464 1458 1451 1446 1440 1436 1433 1430 1428 1426 1426 1426 1426 1427 1428 1429 1430
1561 1565 1576 1578 1575 1569 1562 1577 1585 1582 1580 1578 1576 1572 1567 1562 1556 1551 1545 1539 1532 1525 1518 1511 1504 1498 1493 1488 1483 1478 1472 1467 1461 1455 1449 1444 1439 1434 1430 1427 1424 1423 1421 1421 1421 1421 1422 1423 1424
1561 1566 1567 1576 1575 1575 1570 1579 1584 1581 1580 1578 1575 1571 1566 1561 1555 1549 1544 1537 1530 1523 1516 1509 1502 1496 1491 1485 1480 1475 1469 1464 1458 1452 1447 1441 1436 1432 1428 1424 1421 1419 1417 1416 1416 1416 1416 1417 1419
1562 1564 1574 1575 1577 1576 1569 1577 1585 1584 1581 1578 1574 1569 1564 1559 1553 1547 1541 1534 1528 1521 1514 1507 1501 1495 1490 1484 1479 1473 1467 1462 1456 1450 1444 1439 1434 1429 1425 1421 1418 1415 1413 1412 1411 1411 1412 1412 1414
1566 1568 1573 1579 1581 1584 1582 1586 1585 1585 1582 1579 1575 1570 1564 1558 1551 1545 1539 1532 1525 1519 1512 1505 1499 1493 1488 1482 1477 1471 1465 1459 1454 1449 1443 1438 1432 1427 1423 1419 1415 1412 1410 1408 1407 1406 1407 1408 1410
1568 1572 1577 1584 1584 1586 1591 1592 1586 1585 1582 1579 1574 1568 1563 1557 1551 1544 1537 1530 1523 1516 1510 1503 1498 1492 1487 1481 1475 1470 1464 1458 1452 1447 1442 1437 1431 1426 1421 1417 1413 1409 1407 1404 1403 1402 1402 1402 1404